VLG3CK GCLP-LEBL

Flight info

Callsign VLG3CK
Flight time N/A
Altitude 36000
Route KORAL9A KORAL UG5 SONSO DCT NIRAL UN871 OSDAM/N0437F380 UM985 BARPA DCT XAVIR DCT PIMOS DCT RIXUR DCT PEPAS DCT ARPEX DCT KOSEL DCT BUDIT DCT ETURA DCT TOSTO DCT OLPOS M445 BEGOX DCT VLC L34 CASIM DCT MATEX MATEX3E
Aircraft A320/M-SDE3FGHIRWY/LB1

Departure

Time 2026-05-01 15:20
Airport Gran Canaria Airport (GCLP)

Arrival

Time N/A
Airport Josep Tarradellas Barcelona-El Prat Airport (LEBL)
Time Latitude Longitude Altitude Speed Heading
2026-05-01 14:52 27.93149 -15.39130 89 ft 0 kts 291°
2026-05-01 15:11 27.93142 -15.39111 88 ft 4 kts 289°
2026-05-01 15:12 27.93135 -15.39082 87 ft 4 kts 282°
2026-05-01 15:12 27.93140 -15.39031 86 ft 2 kts 203°
2026-05-01 15:12 27.93142 -15.39030 86 ft 0 kts 201°
2026-05-01 15:14 27.93131 -15.39035 86 ft 3 kts 201°
2026-05-01 15:15 27.93071 -15.39061 84 ft 7 kts 201°
2026-05-01 15:15 27.92969 -15.39105 86 ft 8 kts 201°
2026-05-01 15:16 27.92913 -15.39130 88 ft 0 kts 201°
2026-05-01 15:16 27.92876 -15.39146 88 ft 6 kts 201°
2026-05-01 15:17 27.92752 -15.39228 91 ft 16 kts 217°
2026-05-01 15:18 27.92419 -15.39223 97 ft 17 kts 136°
2026-05-01 15:18 27.92303 -15.39250 99 ft 19 kts 202°
2026-05-01 15:19 27.91934 -15.39210 85 ft 16 kts 53°
2026-05-01 15:19 27.92371 -15.39014 74 ft 83 kts 20°
2026-05-01 15:19 27.93092 -15.38696 60 ft 136 kts 21°
2026-05-01 15:20 27.95101 -15.37775 939 ft 156 kts 23°
2026-05-01 15:20 27.96127 -15.37325 1474 ft 164 kts 21°
2026-05-01 15:20 27.97268 -15.36834 1739 ft 188 kts 21°
2026-05-01 15:21 27.98566 -15.36278 2072 ft 211 kts 20°
2026-05-01 15:21 28.00020 -15.35658 2451 ft 235 kts 19°
2026-05-01 15:21 28.01629 -15.34975 2931 ft 255 kts 18°
2026-05-01 15:21 28.03326 -15.34257 3653 ft 266 kts 20°
2026-05-01 15:22 28.06838 -15.32749 4004 ft 271 kts 20°
2026-05-01 15:22 28.08599 -15.31982 4007 ft 271 kts 20°
2026-05-01 15:22 28.10359 -15.31217 4006 ft 272 kts 21°
2026-05-01 15:23 28.12128 -15.30447 4004 ft 272 kts 21°
2026-05-01 15:23 28.13832 -15.29527 3993 ft 272 kts 35°
2026-05-01 15:23 28.15152 -15.28009 4189 ft 276 kts 57°
2026-05-01 15:23 28.16191 -15.26181 5117 ft 276 kts 57°
2026-05-01 15:24 28.17252 -15.24362 6004 ft 279 kts 57°
2026-05-01 15:24 28.18339 -15.22514 6812 ft 285 kts 57°
2026-05-01 15:24 28.19450 -15.20630 7570 ft 290 kts 57°
2026-05-01 15:24 28.20581 -15.18709 8329 ft 296 kts 56°
2026-05-01 15:25 28.21733 -15.16752 9079 ft 301 kts 56°
2026-05-01 15:25 28.22907 -15.14753 9832 ft 307 kts 56°
2026-05-01 15:25 28.24097 -15.12715 10449 ft 316 kts 56°
2026-05-01 15:25 28.25350 -15.10562 10652 ft 339 kts 56°
2026-05-01 15:26 28.26670 -15.08295 10897 ft 357 kts 56°
2026-05-01 15:26 28.28057 -15.05918 11444 ft 364 kts 56°
2026-05-01 15:26 28.29459 -15.03510 12078 ft 368 kts 56°
2026-05-01 15:26 28.30875 -15.01075 12711 ft 372 kts 56°
2026-05-01 15:27 28.32308 -14.98611 13331 ft 376 kts 56°
2026-05-01 15:27 28.33753 -14.96125 13933 ft 379 kts 57°
2026-05-01 15:27 28.35211 -14.93612 14464 ft 383 kts 57°
2026-05-01 15:28 28.38168 -14.88517 15538 ft 390 kts 56°
2026-05-01 15:28 28.39668 -14.85937 16070 ft 393 kts 56°
2026-05-01 15:28 28.41175 -14.83338 16601 ft 396 kts 56°
2026-05-01 15:29 28.44226 -14.78071 17672 ft 402 kts 56°
2026-05-01 15:29 28.45766 -14.75404 18217 ft 405 kts 56°
2026-05-01 15:29 28.48877 -14.70015 19174 ft 411 kts 56°
2026-05-01 15:30 28.52038 -14.64532 20134 ft 417 kts 56°
2026-05-01 15:31 28.58499 -14.53327 21947 ft 430 kts 56°
2026-05-01 15:31 28.61792 -14.47593 22823 ft 436 kts 56°
2026-05-01 15:32 28.65106 -14.41816 23688 ft 442 kts 56°
2026-05-01 15:32 28.68481 -14.35930 24429 ft 446 kts 56°
2026-05-01 15:33 28.73606 -14.26977 25540 ft 453 kts 56°
2026-05-01 15:34 28.78799 -14.17884 26615 ft 459 kts 56°